"TOA5","AWS1","CR1000","7964","CR1000.Std.14","CPU:AWS1_114.CR1","64363","TBL110"
"TIMESTAMP","RECORD","Wind_spd_WVc(1)","Wind_spd_WVc(2)","Air_Temp_Avg","Humidity_Avg","SW_upper_Wm2_Avg","Rain_Tot","Press_Avg","Issui_Tot","Depth_cm","SR50A_Raw","Quality","Ground_Temp_Avg(1)","Ground_Temp_Avg(2)","SW_lower_Wm2_Avg","Albedo_Avg","SWC_per(1)","SWC_per(2)","Period(1)","Period(2)"
"TS","RN","","","","","","","","","","","","","","","","","","",""
"","","WVc","WVc","Avg","Avg","Avg","Tot","Avg","Tot","Smp","Smp","Smp","Avg","Avg","Avg","Avg","Smp","Smp","Smp","Smp"
"2016-09-30 00:00:00",255373,0.237,66.87,10.12,100,0,0,868.011,0,-4.624,3.167,209,18.1,18.38,0.4018287,0,50.88,58.32,33.52,35.29
"2016-09-30 00:10:00",255374,0.026,129.9,10.18,100,0,0,868.028,0,-4.981,3.171,196,18.11,18.38,0.4814347,0,50.88,58.32,33.52,35.29
"2016-09-30 00:20:00",255375,0.104,154.1,9.92,100,0,0,868.0174,0,-5.117,3.175,192,18.06,18.37,0.4397314,0,50.88,58.26,33.52,35.28
"2016-09-30 00:30:00",255376,0.149,101.9,9.85,100,0,0,867.8531,0,-5.296,3.177,196,18.06,18.34,0.4586879,0,50.88,58.26,33.52,35.28
"2016-09-30 00:40:00",255377,0.284,232.3,9.75,100,0,0,867.6825,0,-4.94,3.173,197,18.06,18.35,0.6292772,0,50.83,58.26,33.5,35.28
"2016-09-30 00:50:00",255378,0.14,184.1,9.74,100,0,0,867.632,0,-5.17,3.176,203,18.05,18.36,0.477645,0,50.88,58.26,33.52,35.28
"2016-09-30 01:00:00",255379,0.011,17.36,9.75,100,0,0,867.5836,0,-5.322,3.177,192,18.01,18.37,0.6179063,0,50.83,58.26,33.5,35.28
"2016-09-30 01:10:00",255380,0.244,81.5,9.63,100,0,0,867.6361,0,-5.123,3.177,189,17.98,18.37,0.5610438,0,50.83,58.21,33.5,35.26
"2016-09-30 01:20:00",255381,0.058,340.5,9.34,100,0,0,867.4635,0,-3.675,3.163,225,17.98,18.35,0.7050955,0,50.83,58.21,33.5,35.26
"2016-09-30 01:30:00",255382,0.241,128.3,9.32,100,0,0,867.4424,0,-3.884,3.167,255,17.92,18.34,0.8377749,0,50.83,58.21,33.5,35.26
"2016-09-30 01:40:00",255383,0.088,16.41,8.91,100,0,0,867.5144,0,-4.265,3.171,236,17.93,18.33,0.833984,0,50.83,58.21,33.5,35.26
"2016-09-30 01:50:00",255384,0.093,177.3,8.93,100,0,0,867.7867,0,-4.623,3.175,224,17.94,18.32,0.9098007,0,50.83,58.21,33.5,35.26
"2016-09-30 02:00:00",255385,0.147,169.7,8.79,100,0,0,867.9236,0,-4.678,3.177,219,17.92,18.3,0.6823505,0,50.83,58.21,33.5,35.26
"2016-09-30 02:10:00",255386,0.19,54.15,8.67,100,0,0,867.9394,0,-2.821,3.158,268,17.83,18.29,0.811239,0,50.77,58.15,33.49,35.25
"2016-09-30 02:20:00",255387,0.283,246.8,8.9,100,0,0,867.9084,0,-2.997,3.159,233,17.85,18.28,1.076597,0,50.77,58.21,33.49,35.26
"2016-09-30 02:30:00",255388,0.046,205.8,8.78,100,0,0,867.9384,0,-3.252,3.162,226,17.85,18.28,0.9552908,0,50.83,58.21,33.5,35.26
"2016-09-30 02:40:00",255389,0.133,77.36,8.74,100,0,0,867.9721,0,-3.15,3.161,202,17.87,18.28,1.061434,0,50.77,58.21,33.49,35.26
"2016-09-30 02:50:00",255390,0.184,76.34,8.72,100,0,0,867.7964,0,-2.699,3.158,205,17.78,18.28,0.9098007,0,50.83,58.15,33.5,35.25
"2016-09-30 03:00:00",255391,0.302,92.8,8.56,100,0,0,867.6541,0,-2.824,3.159,204,17.76,18.28,0.9514999,0,50.77,58.15,33.49,35.25
"2016-09-30 03:10:00",255392,0.343,177.2,8.28,100,0,0,867.488,0,-2.451,3.158,208,17.76,18.28,0.7581673,0,50.83,58.09,33.5,35.24
"2016-09-30 03:20:00",255393,0.392,177.9,7.499,100,0,0,867.4792,0,-3.405,3.174,200,17.79,18.31,0.6444422,0,50.77,58.15,33.49,35.25
"2016-09-30 03:30:00",255394,0.471,183.7,6.553,100,0,0,867.5532,0,-2.453,3.17,197,17.73,18.32,0.8150299,0,50.77,58.15,33.49,35.25
"2016-09-30 03:40:00",255395,0.584,183.4,5.609,100,0,0,867.7507,0,-0.795,3.158,240,17.7,18.27,0.8946373,0,50.77,58.09,33.49,35.24
"2016-09-30 03:50:00",255396,0.497,185.6,5.164,100,0,0,867.6984,0,-2.915,3.179,205,17.73,18.2,1.069016,0,50.72,58.09,33.47,35.24
"2016-09-30 04:00:00",255397,0.486,187.5,4.963,100,0,0,867.7512,0,-2.688,3.178,198,17.6,18.25,1.171368,0,50.77,58.09,33.49,35.24
"2016-09-30 04:10:00",255398,0.457,180.8,4.957,100,0,0,867.747,0,-2.707,3.179,199,17.65,18.29,1.182786,0,50.72,58.09,33.47,35.24
"2016-09-30 04:20:00",255399,0.625,181.2,4.704,100,0,0,867.6037,0,-2.722,3.18,185,17.69,18.32,0.955447,0,50.72,58.09,33.47,35.24
"2016-09-30 04:30:00",255400,0.523,188.8,4.689,100,0,0,867.886,0,-2.809,3.181,201,17.61,18.3,1.334701,0,50.77,58.09,33.49,35.24
"2016-09-30 04:40:00",255401,0.592,187.7,4.491,100,0,0,867.9813,0,-2.464,3.18,194,17.66,18.26,1.202057,0,50.72,58.09,33.47,35.24
"2016-09-30 04:50:00",255402,0.453,191.1,4.305,100,0,0,868.0302,0,-1.762,3.173,206,17.55,18.22,1.289307,0,50.72,58.03,33.47,35.22
"2016-09-30 05:00:00",255403,0.568,185.4,4.232,100,0,0,868.0295,0,-2.469,3.181,194,17.55,18.24,1.281735,0,50.72,58.03,33.47,35.22
"2016-09-30 05:10:00",255404,0.418,178.2,4.296,100,0,0,868.2888,0,-2.794,3.182,195,17.55,18.28,1.399295,0,50.72,58.03,33.47,35.22
"2016-09-30 05:20:00",255405,0.477,190.6,4.387,100,0,0,868.3397,0,-1.507,3.168,216,17.47,18.29,1.410672,0,50.72,57.97,33.47,35.21
"2016-09-30 05:30:00",255406,0.362,195.1,4.824,99.1,0,0,868.37,0,-1.1,3.161,219,17.51,18.29,2.138761,0,50.72,57.97,33.47,35.21
"2016-09-30 05:40:00",255407,0.285,192.2,5.399,93.4,0,0,868.5403,0,-1.196,3.16,222,17.42,18.29,2.779631,0,50.72,57.97,33.47,35.21
"2016-09-30 05:50:00",255408,0.609,186.3,5.549,90.3,0.1415869,0,868.6019,0,-1.624,3.163,229,17.41,18.29,3.117131,2.634,50.66,57.91,33.46,35.2
"2016-09-30 06:00:00",255409,0.407,168.9,5.687,89.7,2.682285,0,868.6019,0,-1.498,3.162,222,17.38,18.29,3.045081,1.339,50.72,57.97,33.47,35.21
"2016-09-30 06:10:00",255410,0.483,178.2,5.931,87.5,5.592682,0,868.5977,0,-2.807,3.172,196,17.29,18.29,3.469799,0.624,50.66,57.91,33.46,35.2
"2016-09-30 06:20:00",255411,0.21,180.7,7.279,80.2,9.096957,0,868.5767,0,-0.292,3.135,224,17.33,18.29,5.308982,0.587,50.72,57.91,33.47,35.2
"2016-09-30 06:30:00",255412,0.166,206,8.82,79.08,22.71683,0,868.722,0,-2.538,3.162,233,17.32,18.29,9.525831,0.449,50.66,57.91,33.46,35.2
"2016-09-30 06:40:00",255413,0.662,190.9,7.488,87.7,31.40476,0,868.8502,0,-0.357,3.14,260,17.21,18.29,10.54591,0.345,50.72,57.86,33.47,35.18
"2016-09-30 06:50:00",255414,0.232,184.5,7.974,88.7,28.60842,0,868.8782,0,-1.261,3.146,238,17.16,18.26,11.25883,0.394,50.66,57.91,33.46,35.2
"2016-09-30 07:00:00",255415,0.411,183.5,8.12,92.3,35.46751,0,868.8087,0,-2.325,3.156,245,17.17,18.27,10.9858,0.319,50.77,57.91,33.49,35.2
"2016-09-30 07:10:00",255416,0.387,185.6,8.47,91.6,132.8073,0,868.9773,0,-0.181,3.132,332,17.19,18.27,13.1472,0.142,50.72,57.86,33.47,35.18
"2016-09-30 07:20:00",255417,0.144,165.9,8.97,93,60.00281,0,869.0248,0,-2.07,3.149,229,17.11,18.23,13.55622,0.246,50.72,57.86,33.47,35.18
"2016-09-30 07:30:00",255418,0.154,154.4,9.38,89.8,68.21532,0,869.1721,0,0.579,3.12,351,17.04,18.18,16.58447,0.287,50.66,57.86,33.46,35.18
"2016-09-30 07:40:00",255419,0.09,152.1,9.88,86.4,240.0659,0,869.2874,0,-0.453,3.125,272,17.01,18.14,18.23955,0.126,50.66,57.8,33.46,35.17
"2016-09-30 07:50:00",255420,0.172,139,11.05,83.5,142.4141,0,869.4284,0,0.922,3.108,379,16.99,18.12,18.57203,0.21,50.61,57.86,33.45,35.18
"2016-09-30 08:00:00",255421,0.26,137.5,11.16,81.5,50.81295,0,869.4891,0,1.11,3.105,229,16.93,18.11,14.58351,0.269,50.61,57.86,33.45,35.18
"2016-09-30 08:10:00",255422,0.266,141.1,11.79,82.5,122.223,0,869.3123,0,-0.05,3.114,253,16.85,18.11,24.81492,0.211,50.66,57.86,33.46,35.18
"2016-09-30 08:20:00",255423,0.127,130.9,12.14,78.04,115.2047,0,869.4745,0,-0.486,3.114,220,16.85,18.11,20.83826,0.18,50.66,57.86,33.46,35.18
"2016-09-30 08:30:00",255424,0.238,7.895,13.07,68.51,77.03635,0,869.5233,0,-0.252,3.107,204,16.89,18.11,22.73745,0.299,50.61,57.8,33.45,35.17
"2016-09-30 08:40:00",255425,0.097,66.2,13.46,72.41,76.16746,0,869.7153,0,-0.306,3.108,208,16.89,18.11,19.3219,0.246,50.61,57.8,33.45,35.17
"2016-09-30 08:50:00",255426,0.597,133,13.36,78.67,81.78182,0,869.6877,0,0.086,3.103,222,16.85,18.11,23.29091,0.283,50.61,57.8,33.45,35.17
"2016-09-30 09:00:00",255427,0.755,133.5,13.82,76.58,158.6795,0,869.4354,0,-0.192,3.102,230,16.81,18.11,33.89368,0.222,50.61,57.8,33.45,35.17
"2016-09-30 09:10:00",255428,0.353,12.47,14.61,73.9,185.4637,0,869.4329,0,-1.694,3.114,202,16.78,18.07,32.54176,0.176,50.61,57.8,33.45,35.17
"2016-09-30 09:20:00",255429,0.196,344.4,15.02,69.42,168.8815,0,869.515,0,-2.685,3.121,186,16.74,18.02,31.88914,0.191,50.66,57.8,33.46,35.17
"2016-09-30 09:30:00",255430,0.638,120.2,15.13,74.29,169.9763,0,869.6814,0,-0.67,3.101,202,16.71,17.97,27.22531,0.176,50.61,57.74,33.45,35.16
"2016-09-30 09:40:00",255431,0.926,135.4,15.42,75.74,231.3401,0,869.5129,0,-1.061,3.106,202,16.65,17.95,30.9383,0.139,50.66,57.74,33.46,35.16
"2016-09-30 09:50:00",255432,0.475,87.5,15.34,75.63,309.5546,0,869.4287,0,-0.622,3.098,204,16.64,17.9,42.92434,0.139,50.61,57.74,33.45,35.16
"2016-09-30 10:00:00",255433,0.418,59.25,15.8,73.27,277.4982,0,869.494,0,-0.471,3.097,214,16.64,17.89,40.63911,0.146,50.61,57.74,33.45,35.16
"2016-09-30 10:10:00",255434,0.322,346.3,15.71,75.2,102.4822,0,869.5613,0,0.122,3.091,235,16.64,17.91,38.86178,0.426,50.61,57.74,33.45,35.16
"2016-09-30 10:20:00",255435,0.424,30.18,16.46,70.89,167.3949,0,869.4287,0,-0.039,3.087,203,16.64,17.92,44.53473,0.325,50.61,57.74,33.45,35.16
"2016-09-30 10:30:00",255436,0.216,350.3,16.92,71.29,768.1942,0,869.3212,0,-0.848,3.093,207,16.67,17.91,54.06922,0.074,50.61,57.68,33.45,35.14
"2016-09-30 10:40:00",255437,0.309,332.3,17.15,70.14,878.4073,0,869.1632,0,-1.006,3.095,196,16.67,17.93,62.96707,0.072,50.55,57.68,33.43,35.14
"2016-09-30 10:50:00",255438,0.422,323.8,16.94,70.74,891.338,0,869.1654,0,-0.634,3.09,213,16.67,17.91,65.79408,0.074,50.61,57.68,33.45,35.14
"2016-09-30 11:00:00",255439,0.526,4.197,17.51,69.73,900.2479,0,869.1569,0,-0.412,3.086,232,16.66,17.82,68.3596,0.076,50.61,57.68,33.45,35.14
"2016-09-30 11:10:00",255440,0.397,342.3,17.66,70.54,904.2687,0,869.0598,0,1.404,3.068,420,16.67,17.79,81.6212,0.09,50.61,57.68,33.45,35.14
"2016-09-30 11:20:00",255441,0.374,313.3,17.61,72.74,909.2234,0,868.8348,0,-0.149,3.084,273,16.7,17.78,93.72217,0.103,50.61,57.68,33.45,35.14
"2016-09-30 11:30:00",255442,0.537,7.809,17.77,73.53,913.3585,0,868.8275,0,-1.879,3.099,250,16.73,17.77,108.1816,0.118,50.55,57.68,33.43,35.14
"2016-09-30 11:40:00",255443,0.605,337.3,17.63,74.2,807.0968,0,868.6836,0,-1.664,3.099,203,16.72,17.76,104.0786,0.124,50.55,57.68,33.43,35.14
"2016-09-30 11:50:00",255444,0.482,348.5,17.53,75.12,878.8433,0,868.5634,0,-2.404,3.105,194,16.68,17.69,126.4613,0.143,50.55,57.62,33.43,35.13
"2016-09-30 12:00:00",255445,0.231,353.4,18.13,71.37,737.1811,0,868.4285,0,1.142,3.067,291,16.68,17.6,107.3648,0.138,50.55,57.62,33.43,35.13
"2016-09-30 12:10:00",255446,0.503,15.43,18.44,69.47,813.7428,0,868.3362,0,-37.91,3.443,232,16.7,17.62,121.1803,0.145,50.55,57.62,33.43,35.13
"2016-09-30 12:20:00",255447,0.424,303.1,18.07,71.31,665.6355,0,868.5123,0,2.297,3.059,242,16.77,17.64,98.98113,0.143,50.55,57.62,33.43,35.13
"2016-09-30 12:30:00",255448,0.603,359.5,18.12,69.16,688.4061,0,868.3525,0,-2.85,3.107,203,16.8,17.66,102.829,0.145,50.55,57.62,33.43,35.13
"2016-09-30 12:40:00",255449,0.374,325.7,18.08,69.84,659.9727,0,868.4355,0,-2.485,3.106,230,16.75,17.68,100.0451,0.148,50.55,57.62,33.43,35.13
"2016-09-30 12:50:00",255450,0.452,326.3,17.82,71.46,433.1759,0,868.4091,0,-1.617,3.098,208,16.75,17.67,60.09717,0.138,50.55,57.56,33.43,35.12
"2016-09-30 13:00:00",255451,0.33,317.6,17.44,73.16,356.7872,0,868.3435,0,0.155,3.084,291,16.87,17.59,49.07619,0.137,50.5,57.56,33.42,35.12
"2016-09-30 13:10:00",255452,0.425,322.5,17.06,75.85,405.4291,0,868.2805,0,1.627,3.069,389,16.86,17.54,57.64548,0.14,50.5,57.56,33.42,35.12
"2016-09-30 13:20:00",255453,0.272,326.3,16.95,77.3,307.3544,0,868.1125,0,-1.124,3.098,243,16.87,17.54,42.35547,0.138,50.5,57.56,33.42,35.12
"2016-09-30 13:30:00",255454,0.319,317.8,16.54,79.77,278.3855,0,868.1779,0,0.104,3.087,276,16.97,17.54,38.44863,0.138,50.5,57.56,33.42,35.12
"2016-09-30 13:40:00",255455,0.29,314.5,16.31,80.4,226.6987,0,868.1987,0,-2.223,3.111,213,16.95,17.56,31.08181,0.137,50.5,57.56,33.42,35.12
"2016-09-30 13:50:00",255456,0.298,311.7,16.2,79.95,183.4538,0,868.2391,0,-3.132,3.121,194,17.09,17.61,25.20424,0.137,50.5,57.51,33.42,35.1
"2016-09-30 14:00:00",255457,0.228,305.6,16,82.5,226.2979,0,868.1982,0,-1.692,3.107,210,17.08,17.62,32.29826,0.142,50.5,57.51,33.42,35.1
"2016-09-30 14:10:00",255458,0.286,328.3,16.21,82.2,242.188,0,868.2111,0,-2.58,3.114,208,17.16,17.62,34.82967,0.144,50.44,57.51,33.41,35.1
"2016-09-30 14:20:00",255459,0.272,343.7,16.21,82.5,165.3038,0,868.1732,0,-2.127,3.111,203,17.14,17.62,22.22566,0.134,50.44,57.51,33.41,35.1
"2016-09-30 14:30:00",255460,0.192,329,16.06,83.8,165.5789,0,868.1649,0,-1.668,3.107,207,17.19,17.57,23.0063,0.139,50.44,57.51,33.41,35.1
"2016-09-30 14:40:00",255461,0.119,301.3,16.04,84,199.0846,0,868.1037,0,-1.509,3.105,192,17.27,17.55,28.12597,0.141,50.44,57.51,33.41,35.1
"2016-09-30 14:50:00",255462,0.13,309.8,16.15,83.8,183.5285,0,868.0616,0,-1.297,3.102,193,17.28,17.56,25.93941,0.141,50.44,57.51,33.41,35.1
"2016-09-30 15:00:00",255463,0.196,329.6,16.31,83.1,191.5266,0,868.1585,0,-1.677,3.105,197,17.36,17.54,26.94743,0.14,50.44,57.51,33.41,35.1
"2016-09-30 15:10:00",255464,0.142,74.75,16.32,82.4,130.0609,0,868.1564,0,-1.4,3.103,188,17.34,17.54,17.0643,0.131,50.39,57.51,33.39,35.1
"2016-09-30 15:20:00",255465,0.065,25.6,16.25,83.3,125.207,0,868.0743,0,-1.304,3.103,192,17.39,17.54,16.45419,0.131,50.39,57.51,33.39,35.1
"2016-09-30 15:30:00",255466,0.166,323.2,16.08,83.9,112.6223,0,868.1395,0,-1.849,3.109,183,17.45,17.54,14.46468,0.128,50.44,57.45,33.41,35.09
"2016-09-30 15:40:00",255467,0.16,338.3,15.9,83.8,71.04381,0,868.1649,0,-2.545,3.116,179,17.46,17.56,8.295305,0.116,50.39,57.45,33.39,35.09
"2016-09-30 15:50:00",255468,0.004,283.4,15.74,86,53.16887,0,868.1649,0,-3.018,3.122,189,17.53,17.58,5.797997,0.109,50.39,57.45,33.39,35.09
"2016-09-30 16:00:00",255469,0.116,184.2,15.67,87.2,54.05712,0,868.1037,0,-2.068,3.113,199,17.54,17.58,6.264112,0.116,50.33,57.51,33.38,35.1
"2016-09-30 16:10:00",255470,0.106,194.6,15.58,87.6,51.94263,0,867.9121,0,-1.838,3.111,198,17.54,17.59,6.173162,0.119,50.39,57.45,33.39,35.09
"2016-09-30 16:20:00",255471,0.028,28.24,15.63,87.3,41.95971,0,868.0153,0,-1.965,3.112,188,17.54,17.59,5.20304,0.124,50.33,57.45,33.38,35.09
"2016-09-30 16:30:00",255472,0.081,29.27,15.42,89.8,37.69142,0,868.1649,0,-1.948,3.113,198,17.6,17.6,4.653556,0.123,50.33,57.39,33.38,35.07
"2016-09-30 16:40:00",255473,0.023,7.802,15.29,90.8,19.65928,0,868.1649,0,-2.523,3.12,201,17.58,17.61,1.769716,0.088,50.39,57.45,33.39,35.09
"2016-09-30 16:50:00",255474,0.117,308.2,15.03,92.5,18.47626,0,868.3417,0,-2.885,3.124,196,17.57,17.62,2.012246,0.109,50.39,57.39,33.39,35.07
"2016-09-30 17:00:00",255475,0.246,25.48,14.99,93.1,10.3956,0,868.3712,0,-2.069,3.117,202,17.6,17.62,0.9739121,0.08,50.33,57.39,33.38,35.07
"2016-09-30 17:10:00",255476,0.057,194,14.84,95.4,0.8253595,0,868.6893,0,-2.172,3.118,200,17.62,17.62,0,0,50.33,57.45,33.38,35.09
"2016-09-30 17:20:00",255477,0.124,133.5,14.76,97.1,0.5109369,0,868.8599,0,-2.1,3.118,196,17.62,17.62,0,0,50.33,57.39,33.38,35.07
"2016-09-30 17:30:00",255478,0.155,108.6,14.69,99.8,1.285203,0,868.6893,0,-1.617,3.114,205,17.62,17.62,0.01515816,0.011,50.33,57.39,33.38,35.07
"2016-09-30 17:40:00",255479,0.098,156.1,14.69,99.8,0.1414902,0,868.6893,0,-1.665,3.114,200,17.62,17.62,0,0,50.28,57.39,33.37,35.07
"2016-09-30 17:50:00",255480,0.197,98.3,14.69,98.9,0,0,868.8998,0,-1.514,3.113,201,17.63,17.61,0,0,50.28,57.39,33.37,35.07
"2016-09-30 18:00:00",255481,0.316,126.2,14.54,99.9,0,0,868.8073,0,-1.363,3.112,200,17.63,17.62,0,0,50.28,57.39,33.37,35.07
"2016-09-30 18:10:00",255482,0.112,68.74,14.53,99.3,0,0,868.9104,0,-1.158,3.11,199,17.63,17.62,0.09473852,0,50.28,57.39,33.37,35.07
"2016-09-30 18:20:00",255483,0.004,278.2,14.56,95.5,0,0,868.9399,0,-1.206,3.11,199,17.64,17.61,0.1364235,0,50.28,57.39,33.37,35.07
"2016-09-30 18:30:00",255484,0.104,302.7,14.49,93.7,0,0,869.1547,0,-1.151,3.109,201,17.65,17.59,0.07200127,0,50.28,57.39,33.37,35.07
"2016-09-30 18:40:00",255485,0.099,59.31,14.57,92,0,0,869.3338,0,-1.261,3.111,200,17.65,17.58,0.2425306,0,50.28,57.39,33.37,35.07
"2016-09-30 18:50:00",255486,0.054,65.83,14.54,91.1,0,0,869.4244,0,-1.261,3.111,206,17.63,17.58,0.02652679,0,50.28,57.39,33.37,35.07
"2016-09-30 19:00:00",255487,0.118,117.7,14.36,94.2,0,0,869.4286,0,-1.219,3.112,210,17.62,17.6,0,0,50.22,57.33,33.35,35.06
"2016-09-30 19:10:00",255488,0.096,140.5,14.25,95.8,0,0,869.4286,0,-1.424,3.114,200,17.62,17.64,0.003789541,0,50.28,57.33,33.37,35.06
"2016-09-30 19:20:00",255489,0.179,126.8,14.27,95,0,0,869.4349,0,-1.472,3.114,202,17.62,17.66,0.0833699,0,50.28,57.33,33.37,35.06
"2016-09-30 19:30:00",255490,0.339,94.9,14.3,93.5,0,0,869.6729,0,-1.574,3.115,201,17.64,17.67,0.1326339,0,50.28,57.33,33.37,35.06
"2016-09-30 19:40:00",255491,0.044,49.8,14.3,93.5,0,0,869.6918,0,-1.574,3.115,202,17.65,17.67,0.1591607,0,50.22,57.33,33.35,35.06
"2016-09-30 19:50:00",255492,0.071,139.9,14.35,92,0,0,869.8309,0,-1.55,3.115,202,17.66,17.66,0.2046352,0,50.28,57.33,33.37,35.06
"2016-09-30 20:00:00",255493,0.303,129.4,14.16,95.1,0,0,869.9109,0,-1.375,3.114,217,17.61,17.65,0.01515816,0,50.22,57.33,33.35,35.06
"2016-09-30 20:10:00",255494,0.199,157,14.25,91.4,0,0,869.8056,0,-1.375,3.114,204,17.61,17.64,0.3448482,0,50.22,57.33,33.35,35.06
"2016-09-30 20:20:00",255495,0.102,144,14.28,88.8,0,0,869.6897,0,-1.424,3.114,208,17.61,17.66,0.4547449,0,50.22,57.33,33.35,35.06
"2016-09-30 20:30:00",255496,0.14,184.3,14.35,86.8,0,0,869.7382,0,-1.411,3.112,207,17.62,17.65,0.5153776,0,50.22,57.27,33.35,35.05
"2016-09-30 20:40:00",255497,0.22,112.4,14.67,83.8,0.09039652,0,869.7066,0,-1.213,3.111,211,17.62,17.68,0.6404324,1.462,50.22,57.27,33.35,35.05
"2016-09-30 20:50:00",255498,0.269,116,14.5,86.9,0,0,869.6624,0,-1.267,3.112,214,17.62,17.67,0.231162,0,50.22,57.27,33.35,35.05
"2016-09-30 21:00:00",255499,0.555,70.81,14.78,82.8,0,0,869.4665,0,-1.035,3.106,218,17.6,17.7,0.6404324,0,50.22,57.27,33.35,35.05
"2016-09-30 21:10:00",255500,1.047,59,14.99,78.47,0,0,869.496,0,-1.242,3.108,208,17.59,17.71,0.5077985,0,50.22,57.27,33.35,35.05
"2016-09-30 21:20:00",255501,1.072,51.79,15.06,74.64,0,0,869.6791,0,-1.598,3.111,201,17.56,17.71,0.462324,0,50.22,57.27,33.35,35.05
"2016-09-30 21:30:00",255502,0.827,33.03,15.16,71.3,0,0,869.6581,0,-1.392,3.109,211,17.54,17.71,0.3372692,0,50.22,57.27,33.35,35.05
"2016-09-30 21:40:00",255503,0.917,32.19,15.15,69.62,0,0,869.4454,0,-1.67,3.111,202,17.54,17.71,0.2917947,0,50.22,57.27,33.35,35.05
"2016-09-30 21:50:00",255504,0.926,32.31,15.07,68.77,0,0,869.4286,0,-1.563,3.113,209,17.56,17.71,0.2349515,0,50.17,57.27,33.34,35.05
"2016-09-30 22:00:00",255505,0.942,35.12,14.49,72.74,0,0,869.4286,0,-1.623,3.115,198,17.58,17.71,0.3372692,0,50.22,57.22,33.35,35.03
"2016-09-30 22:10:00",255506,0.659,74.73,14.42,74.18,0,0,869.4433,0,-1.707,3.117,200,17.6,17.71,0.8033827,0,50.17,57.27,33.34,35.05
"2016-09-30 22:20:00",255507,0.235,193.2,13.62,87.3,0,0,869.675,0,-0.742,3.113,274,17.59,17.71,0.01515816,0,50.17,57.27,33.34,35.05
"2016-09-30 22:30:00",255508,0.136,11.09,13.08,91.5,0,0,869.7444,0,-1.235,3.119,290,17.54,17.71,0.2538992,0,50.17,57.22,33.34,35.03
"2016-09-30 22:40:00",255509,0,0,12.9,97.5,0,0.5,869.6581,0,-2.493,3.132,208,17.53,17.71,0.2501097,0,50.17,57.22,33.34,35.03
"2016-09-30 22:50:00",255510,0.59,112.7,12.7,100,0,0,869.4286,0,0.619,3.103,267,17.47,17.71,0.2766365,0,50.17,57.22,33.34,35.03
"2016-09-30 23:00:00",255511,0.88,74.68,12.75,96.9,0,0,869.3865,0,0.475,3.103,235,17.49,17.71,0.8033827,0,50.17,57.22,33.34,35.03
"2016-09-30 23:10:00",255512,0.371,169.9,12.72,98.3,0,0.5,869.3969,0,-3.652,3.145,202,17.51,17.73,0.5608521,0,50.11,57.22,33.33,35.03
"2016-09-30 23:20:00",255513,0.04,143.7,12.68,100,0,0,869.1758,0,-0.681,3.115,256,17.49,17.73,0.4547449,0,50.17,57.22,33.34,35.03
"2016-09-30 23:30:00",255514,0,0,12.92,100,0.2515382,0,869.1547,0,1.613,3.09,327,17.46,17.72,0.5873788,0.996,50.17,57.16,33.34,35.02
"2016-09-30 23:40:00",255515,0.182,296.1,13.52,100,0.9275507,0,869.1063,0,-1.679,3.12,226,17.45,17.73,1.008021,1.135,50.17,57.22,33.34,35.03
"2016-09-30 23:50:00",255516,0.188,314.7,13.45,100,0.1179101,0.5,869.0768,0,-1.382,3.119,204,17.45,17.71,0.121267,0.196,50.17,57.16,33.34,35.02
